Simultaneous Nadir Overpasses (SNOs) Predictions

Prediction of SNOs between AURA and NPP Satellite Orbit:

Table of predicted SNOs for the next 14.0 days since TLE Epoch: 1/28/2024
Index Date (AURA) Time (AURA) Lat,Lon (AURA) SZA (AURA ) Date (NPP) Time (NPP) Lat,Lon (NPP) SZA (NPP ) Distance(km) Time Diff (sec)
1 01/29/2024 03:36:22 80.18, 29.43 109.47 01/29/2024 03:35:29 80.18, 29.44 109.51 0.37 53
2 01/29/2024 04:25:43 -80.30,-161.77 70.75 01/29/2024 04:26:10 -80.30,-161.84 70.75 1.46 27
3 01/31/2024 18:11:14 80.24, 171.31 108.68 01/31/2024 18:10:52 80.24, 171.27 108.70 0.82 22
4 01/31/2024 19:00:35 -80.37, -19.85 71.54 01/31/2024 19:01:33 -80.36, -19.99 71.56 2.68 58
5 02/03/2024 07:56:44 -80.21, 144.60 71.97 02/03/2024 07:55:34 -80.21, 144.69 71.94 1.82 70
6 02/03/2024 08:46:05 80.30, -46.89 107.87 02/03/2024 08:46:15 80.30, -46.95 107.87 1.06 10
7 02/05/2024 22:31:33 -80.25, -73.67 72.81 02/05/2024 22:30:56 -80.26, -73.58 72.80 1.93 37
8 02/05/2024 23:20:53 80.37, 95.13 106.98 02/05/2024 23:21:36 80.37, 95.11 106.96 0.52 43
9 02/08/2024 13:06:21 -80.32, 68.27 73.71 02/08/2024 13:06:18 -80.33, 68.42 73.74 2.87 3
10 02/11/2024 02:51:47 80.24, 41.23 105.61 02/11/2024 02:51:00 80.25, 41.27 105.63 0.89 47



Historial Predications of SNOs between AURA and NPP
